{"data":{"norad_id":63759,"epoch":"2026-09-20T20:51:07.175520Z","epoch_age_seconds":117875,"freshness":"FRESH","line1":"1 63759U 25089J   26263.86883305  .00152548  00000+0  11716-2 0  9996","line2":"2 63759  43.0020 195.6289 0001958 285.4098  74.6553 15.70820786 80833","mean_motion":15.70820786,"eccentricity":0.0001958,"inclination_deg":43.002,"raan_deg":195.6289,"arg_perigee_deg":285.4098,"mean_anomaly_deg":74.6553,"bstar":0.0011716,"rev_number":8083,"period_min":91.671819779446,"perigee_km":355.23132762575,"apogee_km":357.86863104686,"semimajor_km":6734.6869793363,"source":"CELESTRAK","updated_at":"2026-09-21T09:00:35.094335Z"}}